DELTA 1 DEB, 10869

Orbit data source: Space-Track

DELTA 1 DEB, 10869 is space debris in SSO originally from a launch on Thu, 29 Jul 1976 UTC launched from the Air Force Western Test Range (AFWTR). Debris objects in space refer to the collection of defunct objects orbiting the Earth. Examples of debris include non-operational satellites, rocket bodies, and fragments generated from explosions, collisions, or faulty payload assembly.

Loading next visibility...
Identifier
10869, 1976-077CX
Orbit
SSO
Country
Flag of USUS
Related business
Manufacturer
Unknown
Mission
Spacecraft
Bus & Motor
Unknown
Mass
Unknown
Launch date (UTC)
1976-07-29 (50 years ago)
Launch vehicle
Unknown
Launch site
Air Force Western Test Range (AFWTR)
Object type
Payload
Rocket body
Debris
Shape & HBR
Unknown shape, 0.1 m
Radar Cross Section
Small (<0.1 m²)

Expand to show TLE details & history
Last TLE update: 3 hours ago

TLE from 3 hours ago
0 DELTA 1 DEB
1 10869U 76077CX  26038.31132711  .00000028  00000-0  53010-3 0  9991
2 10869 102.2522 168.8956 0025197  36.7646 351.6477 12.43473074245187
Epoch: 2026-02-07T07:28Z
TLE epoch observation values (Epoch: 2026-02-07T07:28:18.662Z)
Latitude
27.70826°
Longitude
-87.13552°
Altitude
1,475.372 km
Speed
7.137 km/s
True Right ascension
10h 49m 30s
True Declination
27° 34' 48"
Sunlit
Object was in full shadow at epoch
Visualization orbit readout
Latitude
Unknown
Longitude
Unknown
Altitude
Unknown
Speed
Unknown
Apparent Right ascension
Unknown
Apparent Declination
Unknown
Sunlit
N/A
Visualization observer readout
Local Sidereal Time
13:03:56
Azimuth
Unknown
Elevation
Unknown
Doppler factor
Unknown
Orbital elements
Apogee altitude
1,509.324 km
Perigee altitude
1,469.676 km
Semi-major axis
7,867.637 km
Eccentricity
0.00252
Inclination
102.2522°
RAAN
168.8956°
Arg. of periapsis
36.7646°
True anomaly
351.60563°
Mean anomaly
351.6477°
Eccentric anomaly
351.62668°
Mean motion
3.11012 °/min
Orbital period
115.75 mins
BSTAR
0.0005301
Loading maneuver chart data...
Computing Atmospheric mass density...
Loading historical data...
Loading historical data...
Loading historical data...
Loading historical data...
Loading historical data...
Loading historical data...
Loading historical data...

Documentation

Showing up to 5 results
|